Hourly Weather Icod de los Vinos

Today, 30 September, Wednesday

Time Temperature Precipitation Wind Pressure Humidity
00:00 +18°C° 0 mm 3 mps 706 mmHg 85%
01:00 +18°C° 0 mm 3 mps 706 mmHg 85%
02:00 +18°C° 0 mm 3 mps 706 mmHg 86%
03:00 +18°C° 0 mm 3 mps 706 mmHg 86%
04:00 +18°C° 0 mm 3 mps 706 mmHg 86%
05:00 +18°C° 0 mm 3 mps 706 mmHg 86%
06:00 +19°C° 0 mm 3 mps 706 mmHg 81%
07:00 +20°C° 0 mm 3 mps 707 mmHg 75%
08:00 +21°C° 0 mm 3 mps 707 mmHg 70%
09:00 +22°C° 0 mm 3 mps 707 mmHg 66%
10:00 +24°C° 0 mm 3 mps 707 mmHg 62%
11:00 +25°C° 0 mm 3 mps 707 mmHg 59%
12:00 +25°C° 0 mm 4 mps 707 mmHg 60%
13:00 +25°C° 0 mm 4 mps 707 mmHg 61%
14:00 +25°C° 0 mm 4 mps 707 mmHg 62%
15:00 +23°C° 0 mm 4 mps 706 mmHg 65%
16:00 +22°C° 0 mm 4 mps 706 mmHg 69%
17:00 +22°C° 0 mm 4 mps 706 mmHg 72%
18:00 +21°C° 0 mm 4 mps 706 mmHg 73%
19:00 +20°C° 0 mm 4 mps 707 mmHg 75%
20:00 +20°C° 0 mm 5 mps 707 mmHg 76%
21:00 +19°C° 0 mm 5 mps 707 mmHg 78%
22:00 +19°C° 0 mm 5 mps 707 mmHg 80%
23:00 +19°C° 0 mm 5 mps 707 mmHg 82%

Tomorrow, 1 October, Thursday

Time Temperature Precipitation Wind Pressure Humidity
00:00 +19°C° 0 mm 5 mps 706 mmHg 82%
01:00 +17°C° 0 mm 5 mps 706 mmHg 83%
02:00 +17°C° 0 mm 5 mps 706 mmHg 83%
03:00 +17°C° 0 mm 5 mps 706 mmHg 84%
04:00 +17°C° 0 mm 5 mps 705 mmHg 85%
05:00 +18°C° 0 mm 4 mps 705 mmHg 86%
06:00 +19°C° 0 mm 5 mps 706 mmHg 80%
07:00 +19°C° 0 mm 5 mps 706 mmHg 74%
08:00 +20°C° 0 mm 5 mps 706 mmHg 69%
09:00 +21°C° 0 mm 5 mps 706 mmHg 65%
10:00 +22°C° 0 mm 5 mps 706 mmHg 62%
11:00 +25°C° 0 mm 5 mps 707 mmHg 58%
12:00 +23°C° 0 mm 5 mps 706 mmHg 61%
13:00 +23°C° 0 mm 5 mps 706 mmHg 63%
14:00 +23°C° 0 mm 5 mps 706 mmHg 66%
15:00 +22°C° 0 mm 5 mps 706 mmHg 65%
16:00 +22°C° 0 mm 5 mps 705 mmHg 63%
17:00 +21°C° 0 mm 5 mps 705 mmHg 62%
18:00 +21°C° 0 mm 5 mps 705 mmHg 66%
19:00 +20°C° 0 mm 5 mps 706 mmHg 70%
20:00 +19°C° 0 mm 5 mps 706 mmHg 73%
21:00 +19°C° 0 mm 5 mps 706 mmHg 74%
22:00 +17°C° 0 mm 5 mps 706 mmHg 75%
23:00 +17°C° 0 mm 5 mps 706 mmHg 75%

Day after tomorrow, 2 October, Friday

Time Temperature Precipitation Wind Pressure Humidity
00:00 +17°C° 0 mm 5 mps 706 mmHg 76%
01:00 +16°C° 0 mm 5 mps 705 mmHg 77%
02:00 +16°C° 0 mm 5 mps 705 mmHg 78%
03:00 +16°C° 0 mm 5 mps 705 mmHg 80%
04:00 +16°C° 0 mm 5 mps 705 mmHg 81%
05:00 +16°C° 0 mm 5 mps 705 mmHg 83%
06:00 +17°C° 0 mm 5 mps 705 mmHg 80%
07:00 +19°C° 0 mm 5 mps 705 mmHg 77%
08:00 +20°C° 0 mm 5 mps 705 mmHg 74%
09:00 +21°C° 0 mm 4 mps 706 mmHg 68%
10:00 +23°C° 0 mm 4 mps 706 mmHg 63%
11:00 +25°C° 0 mm 4 mps 706 mmHg 57%
12:00 +25°C° 0 mm 4 mps 706 mmHg 55%
13:00 +25°C° 0 mm 4 mps 705 mmHg 54%
14:00 +25°C° 0 mm 4 mps 705 mmHg 52%
15:00 +25°C° 0 mm 4 mps 705 mmHg 56%
16:00 +23°C° 0 mm 4 mps 705 mmHg 61%
17:00 +22°C° 0 mm 4 mps 704 mmHg 65%
18:00 +21°C° 0 mm 5 mps 705 mmHg 70%
19:00 +20°C° 0 mm 5 mps 705 mmHg 75%
20:00 +19°C° 0 mm 5 mps 705 mmHg 80%
21:00 +19°C° 0 mm 5 mps 705 mmHg 79%
22:00 +19°C° 0 mm 5 mps 705 mmHg 77%
23:00 +17°C° 0 mm 5 mps 705 mmHg 75%

3 October, Saturday

Time Temperature Precipitation Wind Pressure Humidity
00:00 +17°C° 0 mm 5 mps 705 mmHg 75%
01:00 +18°C° 0 mm 4 mps 704 mmHg 75%
02:00 +18°C° 0 mm 4 mps 704 mmHg 76%
03:00 +18°C° 0 mm 4 mps 704 mmHg 78%
04:00 +17°C° 0 mm 4 mps 704 mmHg 80%
05:00 +17°C° 0 mm 4 mps 704 mmHg 82%
06:00 +18°C° 0 mm 4 mps 704 mmHg 77%
07:00 +20°C° 0 mm 4 mps 705 mmHg 73%
08:00 +21°C° 0 mm 4 mps 705 mmHg 68%
09:00 +21°C° 0 mm 4 mps 705 mmHg 66%
10:00 +22°C° 0 mm 4 mps 705 mmHg 64%
11:00 +23°C° 0 mm 4 mps 705 mmHg 61%
12:00 +24°C° 0 mm 3 mps 705 mmHg 61%
13:00 +24°C° 0 mm 3 mps 705 mmHg 60%
14:00 +24°C° 0 mm 3 mps 705 mmHg 60%
15:00 +24°C° 0 mm 3 mps 704 mmHg 63%
16:00 +22°C° 0 mm 4 mps 704 mmHg 65%
17:00 +22°C° 0 mm 4 mps 704 mmHg 68%
18:00 +21°C° 0 mm 4 mps 704 mmHg 71%
19:00 +20°C° 0 mm 4 mps 705 mmHg 74%
20:00 +19°C° 0 mm 5 mps 705 mmHg 77%
21:00 +19°C° 0 mm 5 mps 705 mmHg 80%
22:00 +19°C° 0 mm 5 mps 705 mmHg 82%
23:00 +19°C° 0 mm 5 mps 705 mmHg 85%

4 October, Sunday

Time Temperature Precipitation Wind Pressure Humidity
00:00 +19°C° 0 mm 5 mps 705 mmHg 83%
01:00 +19°C° 0 mm 5 mps 704 mmHg 82%
02:00 +17°C° 0 mm 5 mps 704 mmHg 80%
03:00 +17°C° 0 mm 5 mps 704 mmHg 81%
04:00 +17°C° 0 mm 5 mps 704 mmHg 82%
05:00 +16°C° 0 mm 5 mps 704 mmHg 83%
06:00 +18°C° 0 mm 4 mps 705 mmHg 78%
07:00 +19°C° 0 mm 4 mps 705 mmHg 73%
08:00 +20°C° 0 mm 3 mps 706 mmHg 68%
09:00 +22°C° 0 mm 3 mps 706 mmHg 63%
10:00 +24°C° 0 mm 3 mps 706 mmHg 58%
11:00 +25°C° 0 mm 3 mps 706 mmHg 54%
12:00 +25°C° 0 mm 3 mps 706 mmHg 56%
13:00 +25°C° 0 mm 3 mps 706 mmHg 58%
14:00 +24°C° 0 mm 3 mps 705 mmHg 60%
15:00 +24°C° 0 mm 3 mps 705 mmHg 64%
16:00 +22°C° 0 mm 3 mps 705 mmHg 67%
17:00 +22°C° 0 mm 3 mps 705 mmHg 71%
18:00 +21°C° 0.1 mm 3 mps 705 mmHg 75%
19:00 +20°C° 0.1 mm 3 mps 706 mmHg 78%
20:00 +19°C° 0.1 mm 3 mps 706 mmHg 82%
21:00 +19°C° 0 mm 3 mps 706 mmHg 82%
22:00 +19°C° 0 mm 3 mps 706 mmHg 81%
23:00 +19°C° 0 mm 3 mps 706 mmHg 81%

5 October, Monday

Time Temperature Precipitation Wind Pressure Humidity
00:00 +19°C° 0 mm 3 mps 706 mmHg 82%
01:00 +18°C° 0 mm 3 mps 706 mmHg 84%
02:00 +18°C° 0 mm 3 mps 705 mmHg 85%
03:00 +18°C° 0 mm 3 mps 705 mmHg 85%
04:00 +18°C° 0 mm 3 mps 706 mmHg 86%
05:00 +19°C° 0 mm 4 mps 706 mmHg 87%
06:00 +19°C° 0 mm 4 mps 706 mmHg 82%
07:00 +20°C° 0 mm 3 mps 706 mmHg 77%
08:00 +20°C° 0 mm 3 mps 706 mmHg 72%
09:00 +21°C° 0 mm 4 mps 707 mmHg 72%
10:00 +21°C° 0 mm 4 mps 707 mmHg 72%
11:00 +22°C° 0 mm 4 mps 707 mmHg 73%
12:00 +22°C° 0 mm 4 mps 707 mmHg 70%
13:00 +22°C° 0 mm 4 mps 707 mmHg 68%
14:00 +22°C° 0 mm 4 mps 707 mmHg 66%
15:00 +22°C° 0 mm 4 mps 707 mmHg 65%
16:00 +21°C° 0 mm 4 mps 707 mmHg 64%
17:00 +21°C° 0 mm 4 mps 707 mmHg 63%
18:00 +20°C° 0 mm 5 mps 707 mmHg 70%
19:00 +19°C° 0 mm 5 mps 707 mmHg 77%
20:00 +17°C° 0 mm 6 mps 707 mmHg 85%
21:00 +17°C° 0 mm 6 mps 707 mmHg 84%
22:00 +17°C° 0 mm 5 mps 707 mmHg 84%
23:00 +17°C° 0 mm 5 mps 707 mmHg 83%
Show more